| time (UTC) | temp C | wind direction | speed KPH | gust KPH | rain 1hr cm | rain 24hr cm | rain mn cm | humidity % | barometer mb |
| 20260506163017 | 8 | 18 | 11.3 | 22.5 | 0.00 | 0.00 | 0.00 | 52 | 1004.9 |
| 20260506161516 | 9 | 202 | 3.2 | 16.1 | 0.00 | 0.00 | 0.00 | 52 | 1004.7 |
| 20260506160016 | 10 | 325 | 6.4 | 19.3 | 0.00 | 0.00 | 0.00 | 53 | 1004.5 |
| 20260506154514 | 10 | 267 | 14.5 | 32.2 | 0.00 | 0.00 | 0.00 | 49 | 1004.8 |
| 20260506153013 | 10 | 235 | 14.5 | 43.5 | 0.00 | 0.00 | 0.00 | 48 | 1004.8 |
| 20260506151516 | 11 | 282 | 8.0 | 35.4 | 0.00 | 0.00 | 0.00 | 48 | 1004.8 |
| 20260506150012 | 10 | 303 | 9.7 | 24.1 | 0.00 | 0.00 | 0.00 | 48 | 1004.8 |
| 20260506144509 | 10 | 208 | 8.0 | 24.1 | 0.00 | 0.00 | 0.00 | 51 | 1004.9 |
| 20260506143009 | 10 | 41 | 9.7 | 24.1 | 0.00 | 0.00 | 0.00 | 55 | 1005.1 |
| 20260506141507 | 11 | 211 | 8.0 | 27.4 | 0.00 | 0.00 | 0.00 | 55 | 1005.2 |
| 20260506140013 | 9 | 340 | 8.0 | 19.3 | 0.00 | 0.00 | 0.00 | 59 | 1005.1 |
| 20260506134505 | 8 | 169 | 16.1 | 25.7 | 0.00 | 0.00 | 0.00 | 61 | 1005.5 |
| 20260506133004 | 8 | 222 | 11.3 | 29.0 | 0.00 | 0.00 | 0.00 | 65 | 1005.2 |
| 20260506131506 | 8 | 18 | 4.8 | 24.1 | 0.00 | 0.00 | 0.00 | 65 | 1005.2 |
| 20260506130003 | 8 | 166 | 8.0 | 30.6 | 0.00 | 0.00 | 0.00 | 64 | 1005.2 |
| 20260506124505 | 8 | 192 | 16.1 | 33.8 | 0.00 | 0.00 | 0.00 | 62 | 1005.1 |
| 20260506123001 | 8 | 221 | 11.3 | 22.5 | 0.00 | 0.00 | 0.00 | 67 | 1005.0 |
| 20260506121601 | 8 | 212 | 6.4 | 17.7 | 0.00 | 0.00 | 0.00 | 63 | 1004.7 |
| 20260506114559 | 10 | 322 | 1.6 | 6.4 | 0.00 | 0.00 | 0.00 | 65 | 1004.5 |
| 20260506113058 | 11 | 188 | 1.6 | 8.0 | 0.00 | 0.00 | 0.00 | 63 | 1004.4 |
| 20260506111556 | 11 | 289 | 1.6 | 8.0 | 0.00 | 0.00 | 0.00 | 66 | 1004.4 |
| 20260506110054 | 11 | 262 | 1.6 | 8.0 | 0.00 | 0.00 | 0.00 | 64 | 1004.7 |
| 20260506104556 | 11 | 248 | 3.2 | 12.9 | 0.00 | 0.00 | 0.00 | 64 | 1004.9 |
| 20260506103052 | 10 | 303 | 1.6 | 6.4 | 0.00 | 0.00 | 0.00 | 72 | 1005.2 |
| 20260506101546 | 8 | 340 | 3.2 | 14.5 | 0.00 | 0.00 | 0.00 | 67 | 1005.4 |
| 20260506100053 | 7 | 71 | 4.8 | 19.3 | 0.00 | 0.00 | 0.00 | 74 | 1005.4 |
| 20260506094539 | 8 | 15 | 1.6 | 14.5 | 0.00 | 0.00 | 0.00 | 71 | 1005.6 |
| 20260506093035 | 7 | 360 | 1.6 | 9.7 | 0.00 | 0.00 | 0.00 | 73 | 1005.5 |
| 20260506091534 | 7 | 231 | 0.0 | 9.7 | 0.00 | 0.00 | 0.00 | 77 | 1005.7 |
| 20260506090030 | 7 | 338 | 3.2 | 24.1 | 0.00 | 0.00 | 0.00 | 74 | 1005.6 |
| 20260506084526 | 6 | 82 | 4.8 | 14.5 | 0.00 | 0.00 | 0.00 | 75 | 1005.8 |
| 20260506083024 | 6 | 154 | 4.8 | 16.1 | 0.00 | 0.00 | 0.00 | 76 | 1005.8 |
| 20260506081622 | 6 | 49 | 6.4 | 19.3 | 0.00 | 0.00 | 0.00 | 78 | 1005.7 |
| 20260506073019 | 5 | 161 | 4.8 | 11.3 | 0.00 | 0.00 | 0.00 | 81 | 1005.9 |
| 20260506071518 | 5 | 212 | 1.6 | 9.7 | 0.00 | 0.00 | 0.00 | 81 | 1005.8 |
| 20260506061513 | 5 | 98 | 6.4 | 20.9 | 0.00 | 0.00 | 0.00 | 83 | 1006.2 |
| 20260506044559 | 4 | 155 | 4.8 | 19.3 | 0.00 | 0.00 | 0.00 | 83 | 1006.4 |
| 20260506043056 | 4 | 138 | 8.0 | 17.7 | 0.00 | 0.00 | 0.00 | 84 | 1006.5 |
| 20260506041602 | 3 | 360 | 0.0 | 6.4 | 0.00 | 0.00 | 0.00 | 83 | 1006.5 |
| 20260506040105 | 3 | 355 | 0.0 | 4.8 | 0.00 | 0.00 | 0.00 | 83 | 1006.7 |
| 20260506034553 | 3 | 313 | 1.6 | 6.4 | 0.00 | 0.00 | 0.00 | 83 | 1006.7 |
| 20260506033051 | 4 | 278 | 1.6 | 16.1 | 0.00 | 0.00 | 0.00 | 83 | 1006.8 |
| 20260506031550 | 4 | 125 | 4.8 | 14.5 | 0.00 | 0.00 | 0.00 | 83 | 1006.8 |
| 20260506030059 | 3 | 290 | 4.8 | 9.7 | 0.00 | 0.00 | 0.00 | 83 | 1007.1 |
| 20260506024554 | 3 | 186 | 1.6 | 4.8 | 0.00 | 0.00 | 0.00 | 82 | 1007.2 |
| 20260506023044 | 4 | 181 | 4.8 | 14.5 | 0.00 | 0.00 | 0.00 | 82 | 1007.5 |
| 20260506021543 | 3 | 113 | 1.6 | 3.2 | 0.00 | 0.00 | 0.00 | 81 | 1007.7 |
| 20260506020041 | 4 | 155 | 1.6 | 8.0 | 0.00 | 0.00 | 0.00 | 82 | 1007.6 |
| 20260506014553 | 3 | 42 | 1.6 | 6.4 | 0.00 | 0.00 | 0.00 | 82 | 1007.9 |
| 20260506013042 | 3 | 66 | 0.0 | 3.2 | 0.00 | 0.00 | 0.00 | 82 | 1008.0 |
| 20260506011540 | 3 | 91 | 1.6 | 4.8 | 0.00 | 0.00 | 0.00 | 82 | 1007.7 |
| 20260506010048 | 3 | 40 | 0.0 | 4.8 | 0.00 | 0.00 | 0.00 | 81 | 1007.6 |
| 20260506004546 | 5 | 40 | 8.0 | 17.7 | 0.00 | 0.00 | 0.00 | 78 | 1007.8 |
| 20260506003040 | 5 | 225 | 8.0 | 17.7 | 0.00 | 0.00 | 0.00 | 78 | 1008.0 |
| 20260506001535 | 5 | 178 | 3.2 | 11.3 | 0.00 | 0.00 | 0.00 | 78 | 1007.9 |
| 20260506000033 | 5 | 165 | 1.6 | 4.8 | 0.00 | 0.00 | 0.00 | 78 | 1007.9 |
| 20260505234527 | 5 | 360 | 3.2 | 8.0 | 0.00 | 0.00 | 0.00 | 77 | 1007.8 |
| 20260505233025 | 5 | 127 | 6.4 | 19.3 | 0.00 | 0.00 | 0.00 | 76 | 1008.0 |
| 20260505231527 | 5 | 111 | 4.8 | 14.5 | 0.00 | 0.00 | 0.00 | 76 | 1008.0 |
| 20260505230026 | 6 | 67 | 4.8 | 14.5 | 0.00 | 0.00 | 0.00 | 74 | 1008.1 |
| 20260505224519 | 6 | 59 | 4.8 | 14.5 | 0.00 | 0.00 | 0.00 | 73 | 1008.2 |
| 20260505223016 | 6 | 152 | 8.0 | 20.9 | 0.00 | 0.00 | 0.00 | 74 | 1008.2 |
| 20260505221518 | 6 | 185 | 6.4 | 25.7 | 0.00 | 0.00 | 0.00 | 71 | 1008.3 |
| 20260505220009 | 6 | 124 | 8.0 | 20.9 | 0.00 | 0.00 | 0.00 | 73 | 1008.3 |
| 20260505214512 | 6 | 171 | 4.8 | 12.9 | 0.00 | 0.00 | 0.00 | 72 | 1008.3 |
| 20260505213010 | 6 | 137 | 3.2 | 14.5 | 0.00 | 0.00 | 0.00 | 72 | 1008.3 |
| 20260505211508 | 6 | 165 | 3.2 | 11.3 | 0.00 | 0.00 | 0.00 | 70 | 1008.3 |
| 20260505210007 | 6 | 142 | 1.6 | 9.7 | 0.00 | 0.00 | 0.00 | 71 | 1008.2 |
| 20260505204506 | 6 | 140 | 8.0 | 17.7 | 0.00 | 0.00 | 0.00 | 72 | 1008.0 |
| 20260505203018 | 7 | 61 | 4.8 | 17.7 | 0.00 | 0.00 | 0.00 | 71 | 1008.0 |
| 20260505201503 | 7 | 148 | 3.2 | 11.3 | 0.00 | 0.00 | 0.00 | 68 | 1007.9 |
| 20260505200003 | 7 | 185 | 3.2 | 16.1 | 0.00 | 0.00 | 0.00 | 67 | 1007.7 |
| 20260505194502 | 8 | 200 | 11.3 | 19.3 | 0.00 | 0.00 | 0.00 | 64 | 1007.6 |
| 20260505193001 | 8 | 198 | 11.3 | 17.7 | 0.00 | 0.00 | 0.00 | 63 | 1007.5 |
| 20260505191607 | 8 | 188 | 9.7 | 17.7 | 0.00 | 0.00 | 0.00 | 62 | 1007.1 |
| 20260505184603 | 8 | 190 | 11.3 | 22.5 | 0.00 | 0.00 | 0.00 | 58 | 1006.9 |
| 20260505183058 | 8 | 225 | 8.0 | 27.4 | 0.00 | 0.00 | 0.00 | 59 | 1006.8 |
| 20260505181558 | 8 | 159 | 6.4 | 22.5 | 0.00 | 0.00 | 0.00 | 59 | 1006.8 |
| 20260505180057 | 9 | 139 | 6.4 | 16.1 | 0.00 | 0.00 | 0.00 | 58 | 1006.7 |
| 20260505174557 | 9 | 31 | 4.8 | 12.9 | 0.00 | 0.00 | 0.00 | 57 | 1006.6 |
| 20260505173059 | 9 | 71 | 4.8 | 16.1 | 0.00 | 0.00 | 0.00 | 57 | 1006.6 |
| 20260505171556 | 10 | 205 | 8.0 | 20.9 | 0.00 | 0.00 | 0.00 | 55 | 1006.4 |
| 20260505170055 | 10 | 292 | 9.7 | 32.2 | 0.00 | 0.00 | 0.00 | 55 | 1006.2 |
| 20260505164555 | 10 | 173 | 12.9 | 24.1 | 0.00 | 0.00 | 0.00 | 56 | 1006.3 |